K8FAM-13 Weather Reports


time (UTC)temp
C
wind
direction
speed
KPH
gust
KPH
rain 1hr
cm
rain 24hr
cm
rain mn
cm
humidity
%
barometer
mb
20260506150051 9 328 6.4 16.1 0.00 1.14 1.04 77 1009.3
20260506144548 8 343 4.8 19.3 0.00 1.14 1.04 78 1008.9
20260506143046 8 8 3.2 12.9 0.00 1.14 1.04 78 1008.7
20260506141552 8 3 3.2 11.3 0.00 1.14 1.04 78 1008.6
20260506140053 8 360 3.2 16.1 0.03 1.14 1.04 78 1008.1
20260506134541 8 333 1.6 8.0 0.05 1.14 1.04 78 1008.3
20260506133040 8 323 6.4 17.7 0.05 1.14 1.04 78 1008.1
20260506131537 8 36 4.8 22.5 0.05 1.14 1.04 78 1008.0
20260506130036 8 360 4.8 16.1 0.05 1.12 1.02 78 1007.8
20260506124532 8 359 8.0 25.7 0.03 1.09 0.99 78 1007.9
20260506123030 8 8 4.8 16.1 0.05 1.09 0.99 77 1007.0
20260506121528 8 19 4.8 12.9 0.03 1.07 0.97 77 1006.1
20260506120031 8 298 6.4 14.5 0.05 1.07 0.97 77 1006.7
20260506114524 9 262 4.8 19.3 0.08 1.07 0.97 77 1006.8
20260506113021 9 327 8.0 17.7 0.08 1.04 0.94 76 1006.5
20260506111521 10 10 9.7 19.3 0.13 1.04 0.94 76 1005.9
20260506110015 10 314 6.4 20.9 0.15 1.02 0.91 75 1005.6
20260506104510 12 351 4.8 24.1 0.15 0.99 0.89 77 1005.2
20260506103011 13 219 0.0 6.4 0.18 0.97 0.86 78 1004.9
20260506101508 13 171 1.6 8.0 0.20 0.91 0.81 78 1004.9
20260506100007 13 195 3.2 9.7 0.20 0.86 0.76 78 1005.1
20260506094506 13 248 0.0 8.0 0.25 0.84 0.71 77 1004.9
20260506093011 13 298 1.6 11.3 0.28 0.79 0.69 77 1004.9
20260506091504 13 260 0.0 8.0 0.33 0.71 0.61 77 1004.9
20260506090003 13 275 0.0 8.0 0.33 0.66 0.56 77 1005.0
20260506084604 13 187 1.6 4.8 0.36 0.61 0.51 76 1005.4
20260506083100 13 194 1.6 4.8 0.30 0.51 0.41 75 1005.6
20260506081559 13 303 0.0 6.4 0.20 0.41 0.30 74 1005.7
20260506080111 13 170 0.0 4.8 0.13 0.33 0.23 73 1005.4
20260506073110 13 243 0.0 6.4 0.00 0.20 0.10 70 1005.4
20260506071554 13 188 1.6 3.2 0.00 0.20 0.10 69 1005.2
20260506061558 13 193 0.0 6.4 0.08 0.36 0.10 67 1006.2
20260506044534 15 205 1.6 6.4 0.05 0.20 0.20 64 1007.4
20260506043033 15 186 0.0 3.2 0.05 0.20 0.20 64 1007.5
20260506041530 15 312 0.0 3.2 0.00 0.15 0.15 62 1007.7
20260506040030 15 273 0.0 4.8 0.00 0.15 0.15 60 1007.9
20260506034528 16 285 0.0 6.4 0.00 0.15 0.15 58 1007.5
20260506033027 16 322 0.0 4.8 0.00 0.15 0.15 56 1007.4
20260506031527 16 303 1.6 11.3 0.00 0.15 0.15 55 1007.2
20260506030027 17 307 4.8 12.9 0.00 0.15 0.15 53 1007.2
20260506024525 17 331 0.0 1.6 0.00 0.15 0.15 53 1007.0
20260506023026 17 333 1.6 6.4 0.00 0.15 0.15 53 1007.3
20260506021525 18 322 1.6 9.7 0.00 0.15 0.15 51 1007.2
20260506020046 19 212 1.6 8.0 0.00 0.15 0.15 44 1007.1
20260506014524 19 243 1.6 12.9 0.00 0.15 0.15 44 1007.0
20260506013023 20 224 1.6 8.0 0.00 0.15 0.15 43 1006.9
20260506011526 20 272 3.2 14.5 0.00 0.15 0.15 43 1006.9
20260506010028 20 214 3.2 12.9 0.00 0.15 0.15 42 1006.7
20260506004525 20 31 3.2 17.7 0.00 0.15 0.15 42 1006.7
20260506003022 20 195 4.8 16.1 0.00 0.15 0.15 41 1006.9
20260506001520 20 279 4.8 24.1 0.00 0.15 0.15 41 1006.8
20260506000031 20 258 6.4 22.5 0.00 0.15 0.15 41 1006.9
20260505234521 21 229 4.8 16.1 0.00 0.15 0.15 41 1007.0
20260505233018 21 195 3.2 16.1 0.00 0.15 0.15 42 1006.8
20260505231520 21 304 4.8 16.1 0.00 0.15 0.15 41 1006.8
20260505230030 21 145 4.8 16.1 0.00 0.15 0.15 42 1006.7
20260505224517 21 260 6.4 22.5 0.00 0.15 0.15 42 1006.8
20260505223016 21 235 3.2 14.5 0.00 0.15 0.15 43 1006.9
20260505221516 21 277 6.4 19.3 0.00 0.15 0.15 43 1007.2
20260505220016 21 229 6.4 19.3 0.00 0.15 0.15 43 1007.1
20260505214515 21 212 6.4 25.7 0.00 0.15 0.15 43 1007.2
20260505213016 21 265 4.8 19.3 0.00 0.15 0.15 43 1007.2
20260505211521 21 153 6.4 27.4 0.00 0.15 0.15 43 1007.3
20260505210014 21 262 6.4 24.1 0.00 0.15 0.15 41 1007.2
20260505204514 21 219 6.4 16.1 0.00 0.15 0.15 44 1007.4
20260505203016 21 274 8.0 27.4 0.00 0.15 0.15 41 1007.4
20260505201511 21 257 9.7 27.4 0.00 0.15 0.15 43 1007.3
20260505200011 21 270 8.0 30.6 0.00 0.15 0.15 43 1007.5
20260505194510 22 233 6.4 33.8 0.00 0.15 0.15 42 1007.5
20260505193010 22 219 4.8 16.1 0.00 0.15 0.15 42 1007.5
20260505191512 22 237 1.6 12.9 0.00 0.15 0.15 42 1007.7
20260505190006 22 285 4.8 24.1 0.00 0.15 0.15 40 1007.6
20260505184504 22 2 3.2 25.7 0.00 0.15 0.15 40 1007.7
20260505183003 22 276 6.4 32.2 0.00 0.15 0.15 40 1007.9
20260505181501 22 277 9.7 24.1 0.00 0.15 0.15 40 1007.9
20260505180107 22 307 8.0 29.0 0.00 0.15 0.15 40 1007.9
20260505174558 22 241 6.4 22.5 0.00 0.15 0.15 41 1007.9
20260505173055 22 262 6.4 20.9 0.00 0.15 0.15 44 1007.9
20260505171601 20 310 3.2 16.1 0.00 0.15 0.15 46 1008.0
20260505170052 20 233 4.8 27.4 0.00 0.15 0.15 45 1007.8
20260505164553 20 211 6.4 22.5 0.00 0.15 0.15 43 1007.8
20260505163051 21 284 6.4 27.4 0.00 0.15 0.15 44 1007.8
20260505161552 21 191 6.4 27.4 0.00 0.15 0.15 42 1007.6
20260505153047 21 229 11.3 32.2 0.00 0.15 0.15 43 1008.1
20260505151546 21 229 12.9 25.7 0.00 0.15 0.15 44 1007.8